KQ4KX Weather Reports


time (UTC)temp
C
wind
direction
speed
KPH
gust
KPH
rain 1hr
cm
rain 24hr
cm
rain mn
cm
humidity
%
barometer
mb
20260901083004 25 37 1.6 3.2 0.00 0.38 0.00 100 1015.4
20260901082503 25 37 1.6 3.2 0.00 0.38 0.00 100 1015.3
20260901082141 25 37 1.6 3.2 0.00 0.38 0.00 100 1015.3
20260901081932 25 37 1.6 3.2 0.00 0.38 0.00 100 1015.3
20260901081402 25 37 1.6 3.2 0.00 0.38 0.00 100 1015.4
20260901081131 25 37 1.6 3.2 0.00 0.38 0.00 100 1015.4
20260901080903 25 37 1.6 3.2 0.00 0.38 0.00 100 1015.4
20260901080708 25 37 0.0 3.2 0.00 0.38 0.00 100 1015.5
20260901080403 25 37 0.0 3.2 0.00 0.38 0.00 100 1015.5
20260901075832 25 37 0.0 3.2 0.00 0.38 0.00 100 1015.5
20260901075307 25 37 1.6 3.2 0.00 0.38 0.00 100 1015.5
20260901075033 25 37 1.6 3.2 0.00 0.38 0.00 100 1015.5
20260901074802 25 37 1.6 3.2 0.00 0.38 0.00 100 1015.5
20260901074302 25 37 0.0 3.2 0.00 0.38 0.00 100 1015.4
20260901071603 25 31 1.6 3.2 0.00 0.38 0.00 100 1015.8
20260901071311 25 13 1.6 3.2 0.00 0.38 0.00 100 1015.7
20260901071032 25 13 1.6 3.2 0.00 0.38 0.00 100 1015.7
20260901070532 25 6 1.6 3.2 0.00 0.38 0.00 100 1015.9
20260901070003 25 10 1.6 3.2 0.00 0.38 0.00 100 1015.9
20260901065503 25 18 0.0 3.2 0.00 0.38 0.00 99 1016.0
20260901064932 25 18 0.0 1.6 0.00 0.38 0.00 99 1016.1
20260901063332 25 26 1.6 3.2 0.00 0.38 0.00 99 1016.5
20260901062142 25 4 1.6 3.2 0.00 0.38 0.00 100 1016.7
20260901061732 25 4 1.6 3.2 0.00 0.38 0.00 100 1016.7
20260901061542 25 350 1.6 3.2 0.00 0.38 0.00 100 1016.9
20260901061233 25 350 1.6 3.2 0.00 0.38 0.00 100 1016.9
20260901060425 25 322 0.0 3.2 0.00 0.38 0.00 100 1017.2
20260901060132 25 322 0.0 3.2 0.00 0.38 0.00 100 1017.2
20260901054329 25 317 1.6 1.6 0.00 0.38 0.00 99 1017.3
20260901054102 25 317 1.6 1.6 0.00 0.38 0.00 99 1017.3
20260901053750 25 317 1.6 1.6 0.00 0.38 0.00 99 1017.2
20260901053532 25 317 1.6 1.6 0.00 0.38 0.00 99 1017.2
20260901053213 25 317 1.6 1.6 0.00 0.38 0.00 99 1017.3
20260901053002 25 317 1.6 1.6 0.00 0.38 0.00 99 1017.3
20260901052432 25 317 1.6 1.6 0.00 0.38 0.00 99 1017.5
20260901052154 25 317 0.0 1.6 0.00 0.38 0.00 99 1017.5
20260901051902 25 317 0.0 1.6 0.00 0.38 0.00 99 1017.5
20260901051645 25 317 0.0 1.6 0.00 0.38 0.00 99 1017.5
20260901051403 25 317 0.0 1.6 0.00 0.38 0.00 99 1017.5
20260901050832 25 317 0.0 1.6 0.00 0.38 0.00 99 1017.5
20260901045803 25 317 1.6 1.6 0.00 0.38 0.00 99 1017.6
20260901044733 25 317 1.6 1.6 0.00 0.38 0.00 99 1017.7
20260901044202 25 317 1.6 3.2 0.00 0.38 0.00 99 1017.7
20260901043104 25 317 1.6 3.2 0.00 0.38 0.00 99 1017.7
20260901042605 25 317 1.6 3.2 0.00 0.38 0.00 99 1017.7
20260901042104 25 316 1.6 3.2 0.00 0.38 0.00 99 1017.7
20260901041034 25 74 0.0 3.2 0.00 0.38 0.00 99 1017.8
20260901040502 25 102 0.0 1.6 0.00 0.38 0.00 99 1017.8
20260901040002 25 102 0.0 1.6 0.00 0.38 0.00 99 1017.8
20260901035433 25 102 1.6 3.2 0.00 0.38 0.38 99 1017.9
20260901034403 25 102 0.0 3.2 0.00 0.38 0.38 99 1017.7
20260901033904 25 102 0.0 1.6 0.00 0.38 0.38 99 1017.7
20260901033334 25 102 0.0 1.6 0.00 0.38 0.38 99 1017.8
20260901033130 25 102 0.0 1.6 0.00 0.38 0.38 99 1017.8
20260901032833 25 102 0.0 1.6 0.00 0.38 0.38 99 1017.8
20260901032334 25 0 0.0 0.0 0.00 0.38 0.38 98 1017.8
20260901031832 25 102 0.0 1.6 0.00 0.38 0.38 98 1017.9
20260901031302 25 102 0.0 1.6 0.00 0.38 0.38 98 1017.8
20260901030804 25 102 1.6 1.6 0.00 0.38 0.38 98 1017.9
20260901025733 25 102 1.6 1.6 0.00 0.38 0.38 98 1018.1
20260901025233 25 102 0.0 1.6 0.00 0.38 0.38 98 1018.0
20260901024732 25 0 0.0 0.0 0.00 0.38 0.38 98 1017.9
20260901024234 25 0 0.0 0.0 0.00 0.38 0.38 98 1017.8
20260901023732 25 0 0.0 0.0 0.00 0.38 0.38 98 1017.8
20260901022203 26 102 0.0 3.2 0.00 0.38 0.38 97 1017.5
20260901020604 26 81 1.6 4.8 0.00 0.38 0.38 97 1017.3
20260901020104 26 72 1.6 4.8 0.00 0.38 0.38 97 1017.2
20260901015815 26 77 1.6 3.2 0.00 0.38 0.38 97 1017.2
20260901015604 26 77 1.6 3.2 0.00 0.38 0.38 97 1017.2
20260901015334 26 81 1.6 6.4 0.00 0.38 0.38 97 1017.1
20260901015104 26 81 1.6 6.4 0.00 0.38 0.38 97 1017.1
20260901014603 26 92 3.2 9.7 0.00 0.38 0.38 97 1017.1
20260901013749 26 110 3.2 6.4 0.00 0.38 0.38 97 1017.0
20260901013534 26 110 3.2 6.4 0.00 0.38 0.38 97 1017.0
20260901013004 26 103 3.2 6.4 0.00 0.38 0.38 97 1017.1
20260901012504 26 95 4.8 9.7 0.00 0.38 0.38 97 1016.9
20260901011503 26 92 4.8 11.3 0.00 0.38 0.38 97 1016.7
20260901011004 26 88 3.2 11.3 0.00 0.38 0.38 97 1016.7
20260901010503 26 84 1.6 4.8 0.00 0.38 0.38 97 1016.6
20260901010002 26 75 1.6 4.8 0.00 0.38 0.38 97 1016.5
20260901005433 26 70 1.6 4.8 0.00 0.38 0.38 96 1016.6
20260901004903 26 73 1.6 4.8 0.00 0.38 0.38 96 1016.6
20260901004333 26 77 1.6 4.8 0.00 0.38 0.38 97 1016.6
20260901003802 26 75 1.6 4.8 0.00 0.38 0.38 97 1016.7
20260901002732 25 75 0.0 1.6 0.00 0.38 0.38 97 1016.9
20260901002203 25 75 0.0 1.6 0.00 0.38 0.38 96 1016.8
20260901002013 25 75 0.0 3.2 0.00 0.38 0.38 96 1016.7
20260901001708 25 75 0.0 3.2 0.00 0.38 0.38 96 1016.7
20260831235732 25 99 4.8 9.7 0.00 0.38 0.38 96 1016.7
20260831235534 25 99 4.8 9.7 0.00 0.38 0.38 96 1016.7
20260831234434 25 95 4.8 9.7 0.00 0.38 0.38 96 1016.5
20260831233333 25 83 3.2 9.7 0.00 0.38 0.38 96 1016.5
20260831232305 25 88 6.4 12.9 0.00 0.38 0.38 96 1016.4
20260831232125 25 95 4.8 12.9 0.00 0.38 0.38 96 1016.4
20260831231734 25 95 4.8 12.9 0.00 0.38 0.38 96 1016.4
20260831231234 25 105 4.8 11.3 0.00 0.38 0.38 97 1016.4
20260831224602 25 101 3.2 9.7 0.00 0.38 0.38 96 1016.6
20260831224350 25 98 1.6 4.8 0.00 0.38 0.38 96 1016.7
20260831224034 25 98 1.6 4.8 0.00 0.38 0.38 96 1016.7
20260831223532 25 81 1.6 3.2 0.00 0.38 0.38 96 1016.8
20260831223312 25 73 1.6 4.8 0.03 0.38 0.38 96 1016.7
20260831223032 25 73 1.6 4.8 0.03 0.38 0.38 96 1016.7
20260831222504 25 75 3.2 6.4 0.03 0.38 0.38 96 1016.7
20260831221636 25 93 4.8 12.9 0.05 0.38 0.38 96 1016.6
20260831221435 25 93 4.8 12.9 0.05 0.38 0.38 96 1016.6
20260831220904 25 99 6.4 12.9 0.10 0.38 0.38 97 1016.7
20260831220336 25 96 4.8 12.9 0.15 0.38 0.38 97 1016.8
20260831220134 25 88 4.8 12.9 0.15 0.38 0.38 97 1016.8
20260831215833 25 88 4.8 12.9 0.15 0.38 0.38 97 1016.8
20260831215332 25 88 4.8 11.3 0.18 0.38 0.38 97 1016.8
20260831214804 25 84 3.2 9.7 0.20 0.38 0.38 98 1016.8
20260831214435 25 62 1.6 4.8 0.20 0.38 0.38 98 1016.8
20260831214232 25 62 1.6 4.8 0.20 0.38 0.38 98 1016.8
20260831213702 25 67 3.2 6.4 0.20 0.38 0.38 97 1016.9
20260831212704 25 81 4.8 12.9 0.20 0.36 0.36 97 1016.9
20260831211602 25 92 8.0 16.1 0.20 0.33 0.33 98 1016.8
20260831211248 25 93 8.0 17.7 0.20 0.30 0.30 97 1016.8
20260831211032 25 93 8.0 17.7 0.20 0.30 0.30 97 1016.8
20260831210533 25 94 8.0 17.7 0.18 0.25 0.25 97 1016.8
20260831210210 25 89 6.4 17.7 0.20 0.23 0.23 98 1016.9
20260831210002 25 89 6.4 17.7 0.20 0.23 0.23 98 1016.9
20260831205712 25 94 8.0 14.5 0.20 0.20 0.20 97 1017.1
20260831205434 25 94 8.0 14.5 0.20 0.20 0.20 97 1017.1
20260831204332 25 90 8.0 16.1 0.18 0.18 0.18 97 1016.9
20260831203832 25 100 11.3 19.3 0.18 0.18 0.18 98 1016.8
20260831203109 25 102 14.5 20.9 0.18 0.18 0.18 97 1016.7
20260831202805 25 102 14.5 20.9 0.18 0.18 0.18 97 1016.7
20260831202234 25 102 14.5 24.1 0.15 0.15 0.15 97 1016.8
20260831201703 25 100 16.1 25.7 0.13 0.13 0.13 97 1016.8
20260831201202 25 100 19.3 33.8 0.10 0.10 0.10 97 1016.8
20260831195602 26 100 22.5 37.0 0.00 0.00 0.00 94 1016.7
20260831195230 26 98 19.3 30.6 0.00 0.00 0.00 93 1016.5
20260831195106 26 98 19.3 30.6 0.00 0.00 0.00 93 1016.5
20260831194532 27 95 16.1 33.8 0.00 0.00 0.00 92 1016.6
20260831194212 27 96 17.7 33.8 0.00 0.00 0.00 89 1016.7
20260831194033 27 96 17.7 33.8 0.00 0.00 0.00 89 1016.7
20260831193004 28 95 30.6 49.9 0.00 0.00 0.00 85 1017.0
20260831192713 29 90 22.5 49.9 0.00 0.00 0.00 83 1016.6
20260831192504 29 90 22.5 49.9 0.00 0.00 0.00 83 1016.6
20260831192128 32 76 6.4 22.5 0.00 0.00 0.00 72 1016.2
20260831191933 32 76 6.4 22.5 0.00 0.00 0.00 72 1016.2
20260831191718 32 55 4.8 11.3 0.00 0.00 0.00 71 1016.1
20260831191434 32 55 4.8 11.3 0.00 0.00 0.00 71 1016.1
20260831190131 33 32 3.2 6.4 0.00 0.00 0.00 66 1015.9
20260831185833 33 32 3.2 6.4 0.00 0.00 0.00 66 1015.9
20260831184632 33 68 3.2 11.3 0.00 0.00 0.00 70 1016.2
20260831184233 33 68 3.2 11.3 0.00 0.00 0.00 70 1016.2
20260831183844 32 45 3.2 6.4 0.00 0.00 0.00 69 1016.3
20260831183703 32 45 3.2 6.4 0.00 0.00 0.00 69 1016.3
20260831182912 32 36 3.2 4.8 0.00 0.00 0.00 69 1016.3
20260831182703 32 36 3.2 4.8 0.00 0.00 0.00 69 1016.3
20260831180819 33 87 1.6 4.8 0.00 0.00 0.00 68 1016.4
20260831180603 33 87 1.6 4.8 0.00 0.00 0.00 68 1016.4
20260831175602 33 85 1.6 11.3 0.00 0.00 0.00 67 1016.5
20260831175033 33 75 1.6 6.4 0.00 0.00 0.00 72 1016.6
20260831174507 32 81 1.6 3.2 0.00 0.00 0.00 70 1016.6
20260831174004 32 70 1.6 3.2 0.00 0.00 0.00 74 1016.8
20260831173813 32 42 1.6 4.8 0.00 0.00 0.00 71 1017.1
20260831173503 32 42 1.6 4.8 0.00 0.00 0.00 71 1017.1
20260831173415 32 40 3.2 6.4 0.00 0.00 0.00 71 1017.2
20260831173002 32 40 3.2 6.4 0.00 0.00 0.00 71 1017.2
20260831172211 32 38 1.6 4.8 0.00 0.00 0.00 71 1017.2
20260831171934 32 38 1.6 4.8 0.00 0.00 0.00 71 1017.2
20260831170833 32 271 1.6 6.4 0.00 0.00 0.00 71 1017.4
20260831170333 32 113 3.2 6.4 0.00 0.00 0.00 72 1017.4
20260831165834 32 100 3.2 6.4 0.00 0.00 0.00 72 1017.6
20260831164803 32 103 3.2 4.8 0.00 0.00 0.00 73 1017.7
20260831164644 32 100 3.2 6.4 0.00 0.00 0.00 74 1017.8
20260831164233 32 100 3.2 6.4 0.00 0.00 0.00 74 1017.8
20260831163933 32 94 3.2 6.4 0.00 0.00 0.00 77 1017.9
20260831163703 32 94 3.2 6.4 0.00 0.00 0.00 77 1017.9
20260831161846 32 82 1.6 4.8 0.00 0.00 0.00 76 1018.1
20260831161605 32 82 1.6 4.8 0.00 0.00 0.00 76 1018.1
20260831161103 32 94 3.2 6.4 0.00 0.00 0.00 75 1018.1
20260831160032 31 88 3.2 9.7 0.00 0.00 0.00 75 1018.3
20260831155534 31 88 3.2 9.7 0.00 0.00 0.00 77 1018.3
20260831155313 31 87 1.6 4.8 0.00 0.00 0.00 76 1018.4
20260831155033 31 87 1.6 4.8 0.00 0.00 0.00 76 1018.4
20260831154533 31 80 3.2 6.4 0.00 0.00 0.00 77 1018.3
20260831154240 31 73 3.2 6.4 0.00 0.00 0.00 78 1018.4
20260831154004 31 73 3.2 6.4 0.00 0.00 0.00 78 1018.4
20260831153705 31 82 3.2 6.4 0.00 0.00 0.00 80 1018.4
20260831153435 31 82 3.2 6.4 0.00 0.00 0.00 80 1018.4
20260831153214 31 81 3.2 6.4 0.00 0.00 0.00 79 1018.4
20260831152904 31 81 3.2 6.4 0.00 0.00 0.00 79 1018.4
20260831151834 30 65 1.6 6.4 0.00 0.00 0.00 81 1018.5
20260831151639 30 54 1.6 6.4 0.00 0.00 0.00 83 1018.4
20260831151333 30 54 1.6 6.4 0.00 0.00 0.00 83 1018.4
20260831150832 30 49 1.6 4.8 0.00 0.00 0.00 81 1018.4
20260831150634 30 48 1.6 3.2 0.00 0.00 0.00 83 1018.3
20260831150304 30 48 1.6 3.2 0.00 0.00 0.00 83 1018.3
20260831145733 30 32 3.2 4.8 0.00 0.00 0.00 83 1018.3
20260831145628 30 359 3.2 4.8 0.00 0.00 0.00 83 1018.3
20260831145233 30 359 3.2 4.8 0.00 0.00 0.00 83 1018.3
20260831144733 29 35 3.2 6.4 0.00 0.00 0.00 84 1018.2
20260831144233 29 96 3.2 6.4 0.00 0.00 0.00 85 1018.1
20260831143704 28 105 3.2 4.8 0.00 0.00 0.00 86 1018.1
20260831143203 28 95 1.6 4.8 0.00 0.00 0.00 87 1018.1
20260831142204 28 83 1.6 4.8 0.00 0.00 0.00 88 1018.3
20260831140602 27 69 1.6 6.4 0.00 0.00 0.00 91 1018.2
20260831140417 27 73 1.6 6.4 0.00 0.00 0.00 91 1018.2
20260831140104 27 73 1.6 6.4 0.00 0.00 0.00 91 1018.2
20260831135603 27 85 3.2 6.4 0.00 0.00 0.00 92 1018.2
20260831135319 27 96 3.2 9.7 0.00 0.00 0.00 92 1018.2
20260831135033 27 96 3.2 9.7 0.00 0.00 0.00 92 1018.2
20260831134503 27 83 3.2 9.7 0.00 0.00 0.00 93 1018.1
20260831134002 27 55 1.6 4.8 0.00 0.00 0.00 93 1018.2
20260831131047 26 38 1.6 3.2 0.00 0.00 0.00 95 1017.8
20260831130834 26 38 1.6 3.2 0.00 0.00 0.00 95 1017.8
20260831130332 26 27 1.6 3.2 0.00 0.00 0.00 96 1017.9
20260831130053 26 54 1.6 4.8 0.00 0.00 0.00 96 1017.9
20260831125803 26 54 1.6 4.8 0.00 0.00 0.00 96 1017.9
20260831125525 26 70 1.6 4.8 0.00 0.00 0.00 96 1017.8
20260831125234 26 70 1.6 4.8 0.00 0.00 0.00 96 1017.8
20260831124938 26 48 1.6 4.8 0.00 0.00 0.00 97 1017.8
20260831124734 26 48 1.6 4.8 0.00 0.00 0.00 97 1017.8
20260831124331 26 49 1.6 4.8 0.00 0.00 0.00 96 1017.8
20260831124234 26 49 1.6 4.8 0.00 0.00 0.00 96 1017.8
20260831123204 25 41 1.6 6.4 0.00 0.00 0.00 98 1017.6
20260831120741 25 39 1.6 4.8 0.00 0.00 0.00 99 1017.5
20260831120604 25 39 1.6 4.8 0.00 0.00 0.00 99 1017.5
20260831120338 25 27 1.6 4.8 0.00 0.00 0.00 100 1017.4
20260831120104 25 27 1.6 4.8 0.00 0.00 0.00 100 1017.4
20260831113720 25 34 1.6 3.2 0.00 0.00 0.00 100 1017.1
20260831113503 25 34 1.6 3.2 0.00 0.00 0.00 100 1017.1
20260831112204 24 71 1.6 3.2 0.00 0.00 0.00 100 1016.9
20260831111906 24 71 1.6 3.2 0.00 0.00 0.00 100 1016.9
20260831110625 24 0 0.0 0.0 0.00 0.00 0.00 99 1016.6
20260831110333 24 0 0.0 0.0 0.00 0.00 0.00 99 1016.6
20260831110017 24 0 0.0 0.0 0.00 0.00 0.00 99 1016.5
20260831105804 24 0 0.0 0.0 0.00 0.00 0.00 99 1016.5
20260831105234 24 0 0.0 0.0 0.00 0.00 0.00 99 1016.4
20260831104732 24 0 0.0 0.0 0.00 0.00 0.00 99 1016.2
20260831102821 24 0 0.0 0.0 0.00 0.00 0.00 99 1016.2
20260831102603 24 0 0.0 0.0 0.00 0.00 0.00 99 1016.2
20260831101504 24 98 0.0 1.6 0.00 0.00 0.00 99 1016.2
20260831100502 24 98 0.0 1.6 0.00 0.00 0.00 99 1016.2
20260831100247 23 77 1.6 3.2 0.00 0.84 0.00 100 1016.8
20260831094655 24 0 0.0 0.0 0.00 0.00 0.00 99 1016.1
20260831094433 24 0 0.0 0.0 0.00 0.00 0.00 99 1016.1
20260831093654 24 0 0.0 0.0 0.00 0.00 0.00 99 1016.1
20260831093403 24 0 0.0 0.0 0.00 0.00 0.00 99 1016.1
20260831093159 24 0 0.0 0.0 0.00 0.00 0.00 99 1016.2
20260831092904 24 0 0.0 0.0 0.00 0.00 0.00 99 1016.2
20260831092555 24 0 0.0 4.8 0.00 0.00 0.00 99 1016.1
20260831092332 24 0 0.0 4.8 0.00 0.00 0.00 99 1016.1
20260831091832 24 98 0.0 4.8 0.00 0.00 0.00 99 1016.1
20260831091218 24 102 3.2 6.4 0.00 0.00 0.00 99 1016.1
20260831090832 24 102 3.2 6.4 0.00 0.00 0.00 99 1016.1
20260831090636 24 104 1.6 6.4 0.00 0.00 0.00 99 1016.0
20260831090332 24 104 1.6 6.4 0.00 0.00 0.00 99 1016.0
20260831085311 24 107 0.0 1.6 0.00 0.00 0.00 98 1016.1
20260831085056 24 107 0.0 1.6 0.00 0.00 0.00 98 1016.1
20260831084313 24 0 0.0 0.0 0.00 0.00 0.00 98 1016.1
20260831084055 24 0 0.0 0.0 0.00 0.00 0.00 98 1016.1
20260831083754 24 0 0.0 0.0 0.00 0.00 0.00 98 1016.1
20260831083525 24 0 0.0 0.0 0.00 0.00 0.00 98 1016.1